Temperature
27 27 26 26 25 25 24 24 24 25 25 25 25 24 24 23 23 22 21 21 20 19 19 18 18 17 17 17 16 15 15 14 14 13 13 12 12 12 11 11 11 11 11 11
26 27 26 25 26 25 25 25 25 25 25 26 25 24 24 23 23 22 22 21 21 20 19 19 18 18 17 17 16 16 15 15 14 13 13 12 12 12 12 11 11 11 11 11
25 26 26 25 26 26 25 25 25 24 25 25 25 24 24 23 23 22 22 21 21 20 20 19 19 18 18 17 16 16 15 15 14 14 13 13 12 12 12 11 11 11 11 11
25 26 24 26 28 27 26 26 26 26 26 25 25 24 23 23 22 22 22 21 20 20 20 19 19 18 18 17 17 16 16 15 15 14 14 13 13 12 12 12 11 11 11 11
25 25 25 26 26 27 26 25 27 26 26 25 25 24 23 23 22 22 21 21 20 20 20 19 19 19 18 18 17 17 16 16 15 14 14 14 13 13 12 12 12 12 11 11
24 24 24 27 27 27 26 25 27 26 26 25 25 23 22 22 21 21 20 20 20 19 19 19 19 19 18 18 17 17 17 16 15 15 15 14 14 14 13 13 12 12 12 12
23 24 26 26 26 26 24 25 26 26 26 25 25 23 22 21 21 20 20 19 19 19 19 19 18 18 18 18 17 17 17 16 16 15 15 15 14 14 14 13 13 13 12 12
23 23 24 25 25 25 26 26 26 25 25 24 23 22 22 21 20 20 19 19 18 18 18 18 18 18 17 17 17 17 16 16 16 16 15 15 14 14 14 14 13 13 13 13
25 25 25 25 25 25 25 26 25 25 24 23 23 22 21 21 20 19 19 19 18 18 18 18 17 17 17 17 17 16 16 16 16 15 15 15 15 15 14 14 14 13 13 13
26 25 24 25 24 23 24 24 24 23 23 22 22 22 21 20 19 19 18 18 18 18 17 17 17 17 17 17 16 16 16 16 16 15 15 15 15 15 15 14 14 14 13 13
25 26 25 24 24 23 22 22 22 22 22 22 21 21 20 19 18 18 18 17 17 17 17 16 16 16 16 16 16 16 15 15 15 15 16 16 15 15 15 15 14 14 14 14
25 26 25 24 23 23 22 21 21 21 20 20 20 20 19 18 17 17 17 16 16 16 16 15 15 16 16 16 15 15 15 15 15 15 15 15 15 15 15 15 15 15 14 14
26 26 25 25 24 22 21 21 21 20 19 19 18 18 18 17 16 16 15 15 15 15 14 14 14 14 15 15 14 14 13 13 13 14 14 14 14 14 14 14 14 15 15 14
25 24 23 22 21 21 20 20 19 19 18 18 17 17 16 15 15 14 14 14 14 13 13 13 13 13 13 13 13 13 12 12 12 13 13 13 13 13 13 14 14 14 14 14
24 23 22 21 20 20 19 19 18 17 17 16 16 15 15 14 14 13 13 13 12 12 12 12 12 12 12 12 12 11 11 11 11 12 12 12 12 12 12 13 13 13 14 14
23 22 21 20 19 19 18 17 17 16 15 15 14 14 14 13 13 12 12 11 11 11 10 10 10 10 10 10 11 10 10 10 10 10 10 10 11 11 11 12 12 12 13 13
22 21 20 20 19 18 17 17 17 16 15 14 13 13 12 12 11 11 11 10 10 10 9 9 9 9 9 9 9 9 9 9 9 9 9 9 9 10 10 10 11 11 12 12
22 22 21 20 18 17 17 16 16 15 14 13 12 12 12 11 11 10 10 10 9 9 8 8 8 8 8 8 8 8 8 8 8 8 8 8 8 8 9 9 9 10 10 11
21 21 20 19 18 17 16 16 15 14 13 12 12 11 11 11 10 10 9 9 8 8 7 8 7 8 8 8 8 7 7 7 7 7 7 7 7 7 8 8 8 8 8 9
19 19 19 18 17 16 15 14 13 12 11 11 11 10 10 10 9 9 8 8 8 7 7 7 7 7 7 7 7 7 6 6 6 6 6 6 6 6 6 7 7 7 7 7
17 17 16 16 15 14 13 13 12 11 10 10 10 9 9 9 9 8 8 7 7 7 7 6 7 7 7 7 6 6 6 6 6 6 6 6 6 6 6 6 6 6 6 6
14 14 14 13 13 12 11 11 10 10 10 9 9 9 8 8 8 8 7 7 7 7 6 6 6 6 6 6 6 6 6 6 6 6 5 5 5 5 5 5 5 5 5 5
12 12 12 11 11 11 10 10 9 9 9 9 8 8 8 8 8 7 7 7 6 6 6 6 6 6 6 6 6 6 6 6 5 5 5 5 5 4 4 4 4 4 4 4
11 11 10 10 10 10 9 9 8 8 8 8 8 8 7 7 7 7 7 7 6 6 6 6 6 6 6 5 5 5 5 5 5 5 5 4 4 4 4 4 4 3 3 3
10 10 10 10 9 9 9 8 8 8 7 7 7 7 7 7 7 7 6 6 6 6 6 5 5 5 5 5 5 5 5 5 5 4 4 4 4 4 4 3 3 3 3 3
10 9 9 9 9 9 8 8 8 7 7 7 7 7 7 7 6 6 6 6 6 6 6 5 5 5 5 5 5 4 4 4 4 4 4 4 3 3 3 3 3 3 2 2
9 8 8 8 8 8 8 8 7 7 7 7 7 7 7 7 6 6 6 6 6 5 5 5 5 5 5 5 4 4 4 4 4 3 3 3 3 3 2 2 2 2 2 2
Wind_Speed
9 2 2 5 7 10 11 11 8 5 5 4 5 4 3 1 3 3 3 4 5 6 5 4 5 5 4 3 2 2 2 2 1 3 3 3 4 5 5 5 7 6 6 6
9 6 6 9 10 11 12 10 10 8 6 2 5 2 1 2 3 3 4 4 4 5 5 4 4 4 4 4 3 2 2 2 1 1 2 2 4 4 4 5 6 5 6 6
10 9 8 10 15 15 12 10 8 7 3 4 1 1 2 2 0 1 2 3 3 4 4 4 3 3 3 3 2 2 2 1 1 1 1 2 4 4 5 5 5 5 6 6
9 7 8 3 3 8 11 10 8 5 1 1 1 3 2 1 0 1 1 2 2 3 4 5 5 4 4 4 4 3 2 2 3 3 3 3 4 4 5 5 5 5 5 6
8 10 9 5 5 6 7 8 9 7 5 3 2 3 4 5 2 2 2 2 2 1 2 3 3 3 3 4 4 4 3 3 3 3 3 3 4 5 5 4 5 5 5 5
7 7 7 1 12 8 5 6 8 7 5 4 4 2 5 6 4 4 4 2 2 1 1 1 1 2 1 3 3 3 4 4 3 2 3 4 5 5 5 5 5 6 6 5
9 8 5 9 12 9 5 3 10 8 6 5 1 6 6 6 5 4 4 3 1 1 1 1 1 0 3 4 3 1 1 1 2 3 4 5 6 5 5 6 6 6 7 6
8 9 6 11 9 7 3 7 8 8 6 5 6 7 6 6 5 4 4 4 1 1 1 1 1 2 4 4 2 2 2 3 5 6 6 6 6 6 6 6 7 7 7 6
6 2 6 7 4 4 3 4 6 7 6 6 5 5 5 5 5 4 3 3 2 0 1 1 1 1 3 4 3 3 4 6 7 7 7 7 7 7 6 6 6 6 5 5
5 6 10 7 6 5 2 1 6 6 6 5 5 6 6 5 5 4 4 3 3 2 2 2 3 2 2 4 4 5 6 7 7 7 7 7 6 6 6 5 5 5 5 5
9 6 6 8 8 8 7 5 5 5 5 5 5 6 6 6 5 5 4 4 4 4 4 4 4 5 5 5 6 6 7 7 6 6 6 6 6 6 7 6 7 7 6 5
7 7 8 10 13 11 10 8 8 8 7 5 5 6 7 7 6 5 5 5 5 5 5 6 7 8 8 8 7 8 7 7 6 5 5 5 5 6 10 11 13 14 13 10
9 4 1 4 12 12 11 10 9 9 9 8 7 7 8 8 6 6 6 7 7 7 7 7 8 9 9 9 8 8 8 7 6 6 6 6 6 6 6 8 12 14 14 14
5 5 6 6 7 10 10 10 9 9 9 9 8 8 9 9 8 7 7 6 7 7 7 8 8 9 9 10 10 9 8 7 7 6 7 7 7 7 6 6 6 5 9 16
5 6 6 7 9 10 10 11 11 11 10 10 9 8 9 9 9 7 6 6 7 8 8 8 8 8 8 9 9 9 7 6 7 7 7 7 6 7 6 7 6 5 5 5
9 8 7 10 12 13 13 14 13 13 12 11 10 10 10 10 9 8 6 6 7 8 7 7 7 6 7 9 9 7 6 10 9 7 7 7 7 7 7 7 6 6 5 4
11 12 12 13 14 15 15 14 13 13 13 12 12 11 11 10 9 8 7 7 8 8 7 7 6 6 7 9 9 7 6 8 11 8 6 7 8 8 8 8 7 7 6 7
14 13 14 15 14 14 14 13 13 13 13 13 13 11 11 10 9 8 7 7 8 8 7 6 6 6 7 8 8 6 6 6 6 7 7 7 8 8 8 9 10 10 9 9
10 9 10 12 13 14 13 12 13 13 13 13 12 10 9 9 9 8 8 7 7 6 5 5 7 6 7 9 11 6 6 7 7 7 6 9 9 8 8 9 9 10 10 10
2 2 5 8 11 12 12 12 13 13 13 12 12 11 10 8 8 8 9 7 5 4 3 4 5 6 7 9 12 6 6 6 6 6 7 7 7 7 8 8 9 9 9 9
2 3 6 9 10 11 12 13 13 13 12 11 11 11 10 8 7 7 7 7 6 3 2 2 2 4 6 9 11 5 5 5 5 5 6 6 6 7 7 7 8 8 8 9
3 5 8 10 11 11 11 12 12 12 11 10 11 10 10 8 8 6 6 5 6 3 1 1 3 5 8 10 6 5 5 5 4 4 5 5 6 6 6 7 6 6 7 7
4 7 8 10 11 12 12 12 12 11 10 10 10 9 8 6 5 5 6 5 5 4 1 1 2 5 10 7 6 6 5 5 4 5 5 5 5 6 6 6 6 6 6 6
6 8 9 9 11 11 12 11 11 9 9 8 7 7 7 5 4 3 4 7 6 3 2 2 3 7 9 5 5 5 5 5 4 4 5 5 5 5 6 6 6 6 6 8
6 8 9 9 10 8 10 10 10 9 8 6 7 6 5 4 4 3 3 5 6 5 3 4 6 8 6 5 4 4 5 6 6 6 5 5 5 5 6 6 6 7 7 7
6 6 6 7 6 6 7 7 6 7 6 6 6 6 5 4 4 4 2 3 4 4 4 4 4 5 4 3 4 5 5 6 7 6 6 6 6 6 6 7 8 7 7 7
6 6 5 5 5 5 5 6 6 6 6 6 5 5 5 5 4 4 3 2 2 2 2 3 3 3 4 4 4 5 5 5 5 6 6 6 6 6 7 8 7 7 8 8
Wind_Direction
270 244 243 232 211 204 225 247 273 328 9 5 52 66 68 134 180 191 202 194 190 182 199 197 201 207 202 168 176 224 236 231 279 343 358 356 336 324 332 336 328 327 332 330
265 240 242 250 239 220 220 239 261 288 298 57 82 91 172 212 175 188 205 210 202 193 190 199 217 200 178 167 174 198 231 222 163 259 302 315 306 311 320 312 306 316 318 318
266 227 225 248 231 221 219 219 230 249 257 90 75 39 35 19 28 211 205 192 194 207 188 192 220 178 147 142 149 210 225 199 171 226 270 288 305 312 308 305 309 318 313 314
264 230 231 254 61 188 205 217 217 226 233 114 97 109 139 159 299 296 142 153 179 204 192 194 202 176 157 165 197 214 202 209 209 210 234 255 270 279 283 291 306 305 303 310
260 263 254 196 164 174 193 216 207 207 198 175 164 187 175 137 113 53 63 101 150 195 214 205 188 161 179 208 205 196 190 217 229 216 220 240 264 273 272 277 283 287 290 296
258 261 271 210 142 147 187 229 183 179 168 158 214 221 113 100 94 80 74 74 76 131 269 266 166 146 215 267 260 230 203 212 226 226 229 242 254 267 274 273 271 277 278 275
255 264 266 111 125 143 200 220 151 153 150 167 138 84 104 99 92 89 96 93 75 272 273 330 346 292 252 265 275 290 126 198 243 249 246 244 244 251 265 273 276 276 277 271
220 237 236 139 153 178 118 107 128 135 135 119 93 99 105 104 102 100 112 119 133 273 261 245 273 277 278 279 289 304 266 241 243 247 252 257 242 243 250 262 273 277 275 276
211 186 104 149 151 100 82 140 129 126 117 119 126 124 114 109 105 99 93 104 118 229 315 316 294 277 300 311 310 286 264 252 245 245 244 240 239 242 244 247 254 265 270 273
248 162 171 187 145 143 171 131 105 113 127 144 149 130 119 111 103 94 81 77 73 64 45 7 0 39 16 333 323 303 282 266 254 250 249 244 237 231 233 240 250 260 267 272
244 239 169 184 187 179 174 170 154 149 149 149 135 124 120 112 96 85 75 70 70 56 38 22 19 27 19 356 334 315 302 293 283 273 267 262 252 235 233 231 228 235 246 254
227 230 216 199 191 182 176 183 176 160 147 136 130 125 115 100 87 78 72 69 69 59 44 32 29 29 20 4 351 337 324 320 318 312 301 289 278 273 251 242 244 237 233 235
250 268 38 125 158 168 177 179 171 160 150 143 131 122 116 110 99 89 78 69 66 60 49 42 37 27 12 359 349 338 328 329 329 325 319 310 301 291 287 277 256 249 245 241
207 147 129 138 152 169 176 168 160 152 144 139 130 124 119 115 106 93 82 79 75 66 53 46 40 27 6 355 349 340 338 343 341 324 317 310 304 300 295 291 290 276 253 242
199 179 173 162 163 174 170 163 162 159 150 142 136 134 129 122 114 102 88 81 82 71 56 46 37 19 1 357 348 342 343 345 337 324 316 315 316 315 310 307 302 296 293 270
212 194 185 177 176 179 177 177 175 167 158 150 145 138 127 119 115 109 96 84 81 72 57 47 30 10 9 6 349 343 341 347 343 332 334 339 335 329 327 326 323 321 318 319
218 202 196 193 188 188 187 186 179 166 158 153 147 140 136 132 126 119 111 102 92 79 65 49 18 4 24 17 352 345 346 347 350 349 349 351 344 342 343 342 342 341 335 336
235 218 203 197 192 190 189 184 171 160 156 149 146 147 147 142 135 130 123 114 106 89 68 45 12 3 28 26 355 343 350 355 354 356 358 360 354 353 355 355 355 353 349 350
241 224 201 189 182 181 180 172 158 150 146 147 150 146 136 130 130 127 115 101 95 88 69 33 5 19 26 19 357 340 354 357 357 359 0 358 0 1 2 1 0 359 359 1
287 178 165 162 161 162 159 152 146 145 148 150 144 137 134 133 133 128 120 109 92 71 55 26 11 26 21 2 346 337 351 354 355 357 359 358 356 358 0 0 360 359 360 1
32 109 131 138 140 142 144 145 145 147 148 147 145 143 139 137 136 134 132 126 112 71 351 338 31 40 18 347 329 330 340 344 348 351 352 351 350 350 353 356 356 356 358 357
97 116 127 132 135 139 141 143 145 146 145 144 143 141 141 143 140 130 120 117 124 117 306 356 59 32 352 337 315 315 322 332 339 341 341 340 341 340 342 344 344 347 347 345
142 138 140 143 147 147 144 145 146 146 146 146 146 147 147 141 144 149 145 134 124 118 292 359 32 343 333 321 305 309 318 330 338 337 335 333 331 329 329 332 332 331 329 330
157 152 152 155 155 153 152 149 145 145 144 142 143 144 141 140 148 142 125 134 144 156 250 246 277 302 310 295 295 311 325 330 330 331 325 315 310 314 317 317 318 318 317 318
166 162 162 162 160 157 152 149 148 147 148 149 150 151 156 152 145 132 124 141 160 189 245 270 283 287 281 281 305 327 326 316 311 304 293 299 305 308 309 311 314 311 307 304
168 161 158 160 154 148 151 152 152 153 158 159 162 164 164 151 145 147 166 208 221 215 238 255 264 271 283 314 323 311 303 306 312 315 316 316 313 313 309 309 309 308 305 304
163 154 146 151 141 146 151 155 159 167 171 169 168 167 164 160 161 170 184 213 240 250 264 280 294 305 311 309 304 305 311 316 316 316 315 312 310 309 308 310 310 307 304 303
Height
1483 1483 1487 1490 1493 1497 1501 1501 1503 1497 1496 1493 1492 1495 1497 1499 1500 1502 1503 1504 1505 1507 1508 1509 1509 1509 1509 1509 1508 1507 1507 1505 1504 1502 1500 1498 1496 1494 1492 1489 1487 1485 1483 1480
1485 1482 1486 1490 1488 1490 1494 1495 1496 1495 1495 1489 1492 1494 1496 1497 1498 1499 1501 1502 1503 1504 1505 1506 1507 1507 1507 1507 1507 1506 1505 1504 1502 1501 1499 1497 1495 1493 1490 1488 1486 1484 1481 1479
1490 1481 1486 1493 1482 1483 1486 1487 1491 1495 1492 1488 1491 1493 1494 1496 1497 1498 1499 1500 1501 1502 1503 1504 1505 1505 1506 1506 1505 1505 1504 1503 1501 1499 1498 1495 1493 1491 1489 1487 1485 1482 1480 1478
1489 1487 1502 1479 1465 1469 1478 1481 1482 1484 1485 1488 1490 1492 1493 1495 1496 1496 1497 1498 1499 1500 1501 1502 1503 1504 1504 1504 1503 1503 1502 1501 1500 1498 1496 1494 1492 1490 1488 1486 1483 1481 1479 1476
1488 1490 1483 1473 1468 1470 1476 1480 1477 1480 1483 1486 1488 1490 1491 1493 1494 1495 1496 1496 1497 1499 1500 1501 1501 1502 1502 1502 1502 1501 1500 1499 1498 1496 1495 1493 1491 1488 1486 1484 1482 1480 1477 1475
1486 1493 1492 1468 1463 1468 1475 1482 1473 1477 1480 1484 1486 1489 1492 1492 1493 1494 1494 1495 1496 1497 1498 1499 1500 1500 1501 1501 1501 1500 1499 1497 1496 1495 1493 1491 1489 1487 1485 1483 1481 1478 1476 1474
1490 1489 1475 1465 1465 1470 1486 1479 1470 1475 1479 1483 1484 1488 1491 1491 1492 1493 1494 1494 1495 1496 1497 1498 1498 1498 1499 1499 1499 1498 1496 1495 1494 1492 1490 1489 1487 1485 1483 1481 1479 1477 1474 1472
1484 1489 1480 1465 1466 1471 1472 1469 1470 1475 1478 1481 1484 1487 1489 1490 1491 1492 1493 1493 1494 1494 1495 1496 1496 1496 1496 1496 1496 1495 1493 1492 1491 1489 1487 1486 1484 1482 1480 1478 1476 1474 1472 1470
1467 1470 1463 1463 1465 1467 1469 1470 1472 1475 1478 1481 1484 1486 1488 1489 1490 1491 1491 1492 1492 1493 1494 1494 1494 1494 1494 1493 1492 1491 1490 1488 1487 1486 1484 1482 1481 1479 1477 1475 1473 1472 1470 1468
1458 1459 1461 1463 1464 1466 1468 1470 1472 1475 1477 1480 1482 1484 1486 1487 1488 1489 1490 1490 1491 1491 1491 1492 1492 1491 1490 1490 1489 1487 1486 1485 1483 1482 1480 1479 1477 1476 1474 1472 1471 1469 1467 1465
1456 1455 1457 1460 1462 1464 1467 1469 1471 1474 1476 1478 1480 1482 1484 1485 1487 1487 1488 1489 1489 1489 1489 1490 1489 1489 1487 1486 1485 1484 1483 1481 1480 1478 1477 1475 1473 1472 1470 1469 1467 1466 1464 1462
1454 1451 1453 1454 1456 1460 1463 1466 1469 1471 1474 1476 1478 1480 1482 1483 1484 1485 1486 1487 1487 1487 1487 1487 1487 1485 1484 1483 1482 1480 1479 1477 1476 1474 1472 1470 1469 1467 1465 1464 1463 1461 1460 1459
1446 1447 1448 1448 1452 1456 1460 1463 1466 1468 1471 1473 1475 1477 1479 1480 1482 1483 1484 1485 1485 1485 1485 1485 1484 1483 1481 1480 1478 1477 1475 1473 1471 1469 1467 1466 1464 1462 1460 1459 1458 1457 1456 1454
1441 1443 1446 1449 1451 1454 1457 1460 1463 1465 1468 1470 1472 1474 1476 1478 1480 1481 1482 1483 1483 1483 1483 1482 1481 1480 1478 1477 1475 1474 1472 1470 1468 1466 1464 1462 1460 1458 1457 1455 1454 1452 1451 1450
1438 1440 1443 1446 1448 1451 1454 1457 1459 1462 1465 1467 1469 1471 1474 1475 1477 1479 1480 1481 1481 1481 1481 1480 1479 1478 1476 1474 1473 1471 1469 1467 1465 1463 1461 1459 1457 1455 1453 1452 1450 1448 1447 1446
1435 1437 1439 1442 1444 1447 1450 1452 1455 1458 1461 1463 1466 1469 1471 1473 1475 1476 1478 1479 1479 1479 1479 1478 1477 1476 1474 1472 1471 1469 1467 1465 1463 1461 1458 1456 1454 1452 1450 1449 1447 1445 1444 1442
1430 1431 1434 1437 1439 1441 1444 1447 1451 1454 1457 1460 1463 1466 1468 1471 1473 1475 1476 1477 1477 1477 1477 1477 1476 1475 1473 1471 1469 1468 1466 1464 1462 1460 1457 1455 1453 1451 1449 1447 1445 1443 1441 1440
1423 1424 1426 1429 1433 1437 1441 1444 1447 1450 1453 1456 1460 1463 1466 1468 1471 1473 1475 1476 1476 1476 1476 1476 1475 1474 1473 1470 1468 1467 1466 1464 1461 1459 1457 1454 1452 1450 1448 1446 1443 1441 1439 1437
1416 1418 1420 1423 1427 1432 1436 1440 1444 1447 1450 1453 1457 1461 1464 1466 1469 1471 1472 1474 1474 1475 1475 1475 1474 1473 1472 1470 1468 1467 1465 1463 1461 1459 1457 1455 1452 1450 1447 1445 1443 1440 1438 1435
1411 1413 1416 1420 1424 1428 1433 1437 1441 1444 1448 1452 1455 1458 1461 1464 1467 1469 1470 1471 1472 1473 1473 1473 1473 1472 1471 1469 1467 1466 1465 1463 1461 1459 1457 1455 1452 1450 1448 1445 1442 1440 1437 1434
1412 1413 1416 1419 1423 1427 1431 1435 1439 1442 1446 1450 1453 1456 1459 1462 1465 1467 1468 1470 1471 1471 1472 1472 1472 1470 1469 1468 1466 1466 1465 1463 1461 1459 1457 1455 1453 1450 1448 1445 1443 1440 1437 1434
1414 1416 1418 1421 1424 1428 1432 1435 1439 1442 1445 1449 1452 1455 1458 1460 1463 1465 1467 1468 1469 1470 1470 1470 1470 1469 1468 1467 1465 1465 1464 1462 1460 1459 1457 1455 1452 1450 1447 1445 1442 1439 1436 1433
1417 1418 1421 1423 1426 1429 1433 1436 1439 1442 1445 1448 1451 1453 1456 1459 1461 1464 1466 1467 1467 1468 1468 1468 1468 1467 1466 1465 1464 1463 1462 1461 1459 1457 1455 1453 1451 1449 1446 1443 1441 1438 1434 1431
1419 1420 1423 1426 1428 1431 1434 1436 1439 1442 1445 1448 1450 1453 1455 1458 1460 1462 1464 1465 1465 1466 1466 1466 1466 1465 1464 1463 1462 1461 1460 1459 1457 1455 1453 1451 1449 1446 1444 1441 1438 1435 1432 1429
1420 1421 1423 1426 1429 1431 1434 1436 1439 1441 1444 1447 1449 1452 1454 1457 1459 1460 1462 1463 1463 1463 1464 1464 1463 1462 1461 1461 1460 1459 1457 1456 1454 1452 1450 1448 1445 1443 1440 1438 1435 1432 1428 1425
1420 1421 1423 1426 1428 1431 1433 1436 1438 1441 1443 1446 1448 1450 1453 1454 1456 1458 1459 1460 1461 1461 1461 1461 1460 1460 1459 1458 1457 1455 1454 1452 1450 1448 1446 1444 1442 1439 1436 1433 1430 1427 1423 1420
1419 1421 1423 1425 1427 1429 1432 1434 1437 1440 1442 1444 1446 1449 1451 1453 1454 1456 1457 1458 1458 1458 1458 1458 1458 1457 1456 1455 1453 1452 1450 1448 1446 1444 1442 1439 1437 1434 1431 1428 1425 1421 1418 1414